[[{"header":{"parameterUnit":"m.s-1","parameterCategory":1,"la1":30.2991,"la2":30.254,"lo1":-89.0895,"lo2":-89.0444,"dy":0.0017,"dx":0.0017,"nx":28,"ny":28,"refTime":"2025-02-10T09:00:00:Z","depth":0,"parameterNumber":2,"parameterNumberName":"U-component_of_WINDS"},"data":[0,0,0,0,0,0,0,0,0,0,0,0,0,0,0,0,0,0,0,0,0,0,0,0,0,0,0,0,0,0,0,0,0,0,0,0,0,0,0,0,0,0,0,0,0,0,0,0,0,0,0,0,0,0,0,0,0,0,-1.185,-1.185,0,-1.191,-1.1911,-1.1912,-1.1886,-1.1885,-1.1883,-1.1882,-1.1945,-1.1948,-1.1951,0,0,0,0,0,0,0,0,0,0,0,0,0,-1.1714,-1.1716,-1.185,-1.185,-1.1851,-1.191,-1.1911,-1.1912,-1.1886,-1.1885,-1.1883,-1.1881,-1.1944,-1.1948,-1.1952,0,0,0,0,0,0,0,0,0,0,0,0,0,-1.1773,-1.1717,-1.185,-1.1845,-1.1846,-1.191,-1.1911,-1.1912,-1.1887,-1.1885,-1.1882,-1.188,-1.1943,-1.1947,-1.1952,-1.2024,0,0,-1.1966,-1.1968,0,0,0,0,0,0,0,0,-1.177,-1.1778,-1.1845,-1.1846,-1.1846,-1.1888,-1.1886,-1.195,-1.1887,-1.1871,-1.1882,-1.1879,-1.1928,-1.1934,-1.195,-1.2027,-1.203,-1.1966,-1.1969,-1.1971,-1.1972,0,0,0,0,0,0,0,-1.1766,-1.1776,-1.1874,-1.1846,-1.1847,-1.1841,-1.1847,-1.1898,-1.1911,-1.1872,-1.1871,-1.1878,-1.1928,-1.1946,-1.1951,-1.2031,-1.1966,-1.197,-1.1973,-1.1975,-1.2172,-1.2174,0,0,0,0,0,0,-1.1762,-1.1772,-1.1872,-1.1876,-1.1802,-1.1846,-1.1852,-1.1877,-1.1911,-1.1914,-1.188,-1.1877,-1.1939,-1.1946,-1.1954,-1.2041,-1.1971,-1.1975,-1.1978,-1.217,-1.2173,-1.2175,0,0,0,0,0,0,-1.1759,-1.1771,-1.1869,-1.1824,-1.1836,-1.185,-1.1878,-1.1879,-1.1897,-1.1916,-1.1919,-1.1896,-1.1938,-1.1947,-1.2007,-1.2043,-1.1978,-1.1982,-1.2167,-1.2171,-1.2174,-1.2217,0,0,0,0,0,0,-1.1755,-1.177,-1.1797,-1.1824,-1.1838,-1.1921,-1.188,-1.1882,-1.1905,-1.1901,-1.1932,-1.1935,-1.1937,-1.2001,-1.2012,-1.2048,-1.1985,-1.2164,-1.2168,-1.2173,-1.2212,-1.2221,-1.2229,0,0,0,0,0,-1.175,-1.1806,-1.1798,-1.181,-1.1872,-1.1923,-1.1931,-1.1932,-1.1908,-1.1936,-1.1948,-1.1934,-1.2037,-1.2007,-1.2019,-1.2058,-1.2161,-1.2167,-1.2172,-1.2208,-1.2219,-1.2229,0,0,0,0,0,0,-1.1783,-1.181,-1.1801,-1.1868,-1.1894,-1.1919,-1.1954,-1.1944,-1.1977,-1.1973,-1.1973,-1.198,-1.2042,-1.2056,-1.2021,-1.213,-1.2096,-1.2104,-1.2119,-1.213,-1.2138,-1.2133,-1.1989,0,0,0,0,0,-1.1798,-1.1836,-1.1858,-1.1915,-1.1928,-1.1939,-1.1961,-1.196,-1.1987,-1.1997,-1.2014,-1.2041,-1.208,-1.2106,-1.2142,-1.2214,-1.2221,-1.2247,-1.2255,-1.2262,-1.2269,-1.2309,-1.2321,-1.2194,-1.2194,-1.2194,0,0,-1.1829,-1.1848,-1.1873,-1.1922,-1.1942,-1.1983,-1.1948,-1.1993,-1.2023,-1.2004,-1.2062,-1.2076,-1.2106,-1.2173,-1.2203,-1.2186,-1.2306,-1.2269,-1.2275,-1.2278,-1.2316,-1.2329,-1.2339,-1.2198,-1.2197,-1.2196,0,0,-1.1906,-1.1925,-1.1975,-1.1995,-1.2026,-1.2033,-1.2045,-1.2072,-1.2081,-1.2139,-1.2125,-1.2162,-1.2229,-1.2251,-1.2271,-1.2359,-1.2347,-1.2371,-1.2416,-1.2455,-1.2465,-1.2474,-1.2506,-1.2517,-1.2379,-1.2379,-1.2379,0,-1.1941,-1.2002,-1.2001,-1.2047,-1.207,-1.2055,-1.2106,-1.2126,-1.2167,-1.2183,-1.2164,-1.2248,-1.2267,-1.2339,-1.2361,-1.2378,-1.2392,-1.2368,-1.2464,-1.2473,-1.2481,-1.2511,-1.2523,-1.2381,-1.2381,-1.2381,-1.2381,0,-1.2044,-1.2086,-1.2123,-1.2163,-1.2189,-1.2237,-1.2245,-1.2273,-1.2269,-1.2279,-1.2339,-1.2362,-1.2403,-1.242,-1.2417,-1.2492,-1.2481,-1.2463,-1.2428,-1.2496,-1.2524,-1.2536,-1.2385,-1.2384,-1.2384,-1.2383,0,0,-1.2142,-1.2182,-1.2196,-1.2214,-1.2247,-1.2281,-1.2329,-1.2369,-1.2393,-1.2422,-1.2463,-1.2521,-1.2504,-1.2527,-1.2527,-1.2561,-1.263,-1.2539,-1.254,-1.2555,-1.2715,-1.2729,-1.2742,-1.2623,-1.2625,-1.2627,-1.2713,0,-1.2223,-1.2306,-1.2308,-1.2385,-1.2425,-1.2412,-1.2454,-1.248,-1.249,-1.2526,-1.2538,-1.2579,-1.2554,-1.2568,-1.2601,-1.2615,-1.2663,-1.2609,-1.2661,-1.2663,-1.2654,-1.2757,-1.2771,-1.285,-1.2724,-1.2726,-1.2727,0,-1.2327,-1.236,-1.2441,-1.2469,-1.2486,-1.2524,-1.2562,-1.2596,-1.2625,-1.263,-1.2657,-1.2652,-1.2702,-1.2666,-1.2736,-1.2699,-1.2721,-1.2732,-1.2735,-1.2739,-1.2699,-1.2764,-1.2876,-1.2888,-1.2745,-1.2743,-1.2742,0,-1.2391,-1.2456,-1.2512,-1.2529,-1.2563,-1.259,-1.2606,-1.2633,-1.2658,-1.2691,-1.2707,-1.2747,-1.2768,-1.2799,-1.2805,-1.2778,-1.2875,-1.284,-1.2881,-1.2881,-1.2901,-1.29,-1.3018,-1.2916,-1.2916,-1.2916,-1.2916,0,-1.248,-1.253,-1.2542,-1.2577,-1.2633,-1.2636,-1.2692,-1.2705,-1.273,-1.2768,-1.276,-1.2796,-1.2802,-1.284,-1.2845,-1.2902,-1.2912,-1.2918,-1.2919,-1.2919,-1.2918,-1.2933,-1.2927,-1.2919,-1.2918,-1.2918,-1.2917,0,-1.2561,-1.2571,-1.2632,-1.266,-1.2668,-1.2709,-1.2733,-1.2767,-1.2777,-1.2826,-1.2837,-1.2854,-1.2898,-1.2907,-1.296,-1.2963,-1.3031,-1.3027,-1.3021,-1.3021,-1.3062,-1.3058,-1.3193,-1.3211,-1.3098,-1.3099,-1.31,0,-1.2617,-1.2655,-1.2688,-1.2713,-1.273,-1.277,-1.2795,-1.28,-1.2827,-1.2864,-1.2893,-1.2937,-1.2971,-1.3043,-1.306,-1.31,-1.3096,-1.3141,-1.3102,-1.3101,-1.3097,-1.3095,-1.3099,-1.3148,-1.315,-1.3151,-1.3151,0,-1.2716,-1.2719,-1.2755,-1.2794,-1.2824,-1.2855,-1.2884,-1.2905,-1.2914,-1.2945,-1.299,-1.3017,-1.3071,-1.3114,-1.3155,-1.3172,-1.3164,-1.3164,-1.3175,-1.3175,-1.317,-1.3174,-1.3041,-1.316,-1.3159,-1.3159,-1.3158,-1.3158,-1.2786,-1.2819,-1.2848,-1.2889,-1.2912,-1.2939,-1.2973,-1.2988,-1.3025,-1.3069,-1.307,-1.312,-1.3149,-1.3203,-1.3223,-1.3262,-1.3248,-1.3265,-1.3269,-1.3273,-1.3277,-1.3165,-1.327,-1.3269,-1.3269,-1.3269,-1.3269,0,-1.2884,-1.2902,-1.2939,-1.2981,-1.3014,-1.3003,-1.3035,-1.3063,-1.3107,-1.3135,-1.317,-1.3222,-1.3265,-1.3285,-1.3328,-1.3355,-1.3352,-1.3366,-1.3364,-1.3368,-1.3287,-1.3273,-1.3368,-1.3368,-1.3368,-1.3368,-1.3368,-1.3367,-1.2938,-1.2995,-1.3002,-1.307,-1.3088,-1.3136,-1.3156,-1.3182,-1.3204,-1.3263,-1.3298,-1.3311,-1.3337,-1.3381,-1.342,-1.3425,-1.3441,-1.3457,-1.346,-1.3384,-1.3374,-1.3364,-1.335,-1.346,-1.346,-1.3537,-1.3538,-1.3538]},{"header":{"parameterUnit":"m.s-1","parameterCategory":1,"la1":30.2991,"la2":30.254,"lo1":-89.0895,"lo2":-89.0444,"dy":0.0017,"dx":0.0017,"nx":28,"ny":28,"refTime":"2025-02-10T09:00:00:Z","depth":0,"parameterNumber":3,"parameterNumberName":"V-component_of_WINDS"},"data":[0,0,0,0,0,0,0,0,0,0,0,0,0,0,0,0,0,0,0,0,0,0,0,0,0,0,0,0,0,0,0,0,0,0,0,0,0,0,0,0,0,0,0,0,0,0,0,0,0,0,0,0,0,0,0,0,0,0,-1.1064,-1.1063,0,-1.0972,-1.0971,-1.097,-1.0951,-1.0952,-1.0953,-1.0953,-1.085,-1.0846,-1.0843,0,0,0,0,0,0,0,0,0,0,0,0,0,-1.1216,-1.1213,-1.1064,-1.1063,-1.1061,-1.0972,-1.0971,-1.0969,-1.0951,-1.0952,-1.0953,-1.0954,-1.0851,-1.0847,-1.0843,0,0,0,0,0,0,0,0,0,0,0,0,0,-1.1139,-1.1212,-1.1064,-1.1042,-1.1039,-1.0972,-1.097,-1.0969,-1.0951,-1.0952,-1.0953,-1.0954,-1.0852,-1.0847,-1.0842,-1.0788,0,0,-1.0826,-1.0824,0,0,0,0,0,0,0,0,-1.1143,-1.1133,-1.1046,-1.1043,-1.104,-1.0974,-1.0986,-1.0908,-1.095,-1.0984,-1.0953,-1.0955,-1.089,-1.0881,-1.0861,-1.0783,-1.0779,-1.0826,-1.0823,-1.082,-1.0819,0,0,0,0,0,0,0,-1.1149,-1.1137,-1.1027,-1.1045,-1.1041,-1.1034,-1.1024,-1.0971,-1.0931,-1.0981,-1.098,-1.0969,-1.0888,-1.0866,-1.0859,-1.0777,-1.0826,-1.0821,-1.0818,-1.0816,-1.0651,-1.065,0,0,0,0,0,0,-1.1159,-1.1142,-1.103,-1.1024,-1.1096,-1.103,-1.1019,-1.0994,-1.0932,-1.0924,-1.0969,-1.0969,-1.0875,-1.0865,-1.0855,-1.079,-1.082,-1.0816,-1.0813,-1.0652,-1.0651,-1.0649,0,0,0,0,0,0,-1.1163,-1.1149,-1.1034,-1.1083,-1.1067,-1.1026,-1.0998,-1.0992,-1.097,-1.0923,-1.0915,-1.0955,-1.0875,-1.0862,-1.0806,-1.0786,-1.0813,-1.0809,-1.0654,-1.0652,-1.065,-1.0657,0,0,0,0,0,0,-1.1167,-1.1151,-1.1132,-1.1083,-1.1065,-1.0989,-1.0997,-1.0989,-1.0962,-1.0962,-1.0907,-1.0899,-1.0875,-1.0814,-1.0801,-1.0779,-1.0805,-1.0656,-1.0653,-1.0651,-1.0659,-1.0656,-1.0653,0,0,0,0,0,-1.1172,-1.1135,-1.1131,-1.1117,-1.1041,-1.0987,-1.0977,-1.0953,-1.0961,-1.094,-1.091,-1.0901,-1.079,-1.0808,-1.0793,-1.077,-1.0657,-1.0654,-1.0651,-1.066,-1.0656,-1.0653,0,0,0,0,0,0,-1.1179,-1.1128,-1.1123,-1.1069,-1.1033,-1.0985,-1.0958,-1.095,-1.0908,-1.0909,-1.0878,-1.0865,-1.0811,-1.0784,-1.0806,-1.0715,-1.0723,-1.0717,-1.0735,-1.0731,-1.0729,-1.0737,-1.08,0,0,0,0,0,-1.1175,-1.1139,-1.1094,-1.1051,-1.1034,-1.0999,-1.0975,-1.096,-1.092,-1.0904,-1.0869,-1.0828,-1.0784,-1.0756,-1.0712,-1.0654,-1.0642,-1.063,-1.0628,-1.0626,-1.0621,-1.0589,-1.0584,-1.064,-1.064,-1.064,0,0,-1.1164,-1.1132,-1.111,-1.1051,-1.1022,-1.0983,-1.0986,-1.0944,-1.0915,-1.0896,-1.0843,-1.0815,-1.0768,-1.0711,-1.0684,-1.0686,-1.0603,-1.0622,-1.0621,-1.0617,-1.0586,-1.0581,-1.0576,-1.0638,-1.0638,-1.0639,0,0,-1.1127,-1.1098,-1.106,-1.1031,-1.0988,-1.0966,-1.0956,-1.0909,-1.0892,-1.0838,-1.0824,-1.0786,-1.0711,-1.0678,-1.0652,-1.0603,-1.0593,-1.0589,-1.0576,-1.0545,-1.0541,-1.0537,-1.0521,-1.0515,-1.0585,-1.0585,-1.0585,0,-1.1119,-1.1063,-1.104,-1.1001,-1.0975,-1.096,-1.092,-1.0892,-1.0835,-1.0817,-1.0822,-1.0728,-1.0695,-1.0631,-1.062,-1.0598,-1.0585,-1.0596,-1.0544,-1.054,-1.0535,-1.052,-1.0513,-1.0585,-1.0585,-1.0585,-1.0585,0,-1.1056,-1.1017,-1.0991,-1.0941,-1.0912,-1.0872,-1.0842,-1.0815,-1.0802,-1.0778,-1.0723,-1.0683,-1.0632,-1.0615,-1.06,-1.0549,-1.0553,-1.0551,-1.0559,-1.0531,-1.0515,-1.0509,-1.0585,-1.0585,-1.0585,-1.0585,0,0,-1.102,-1.096,-1.0951,-1.0929,-1.0881,-1.0849,-1.0808,-1.0762,-1.074,-1.07,-1.0665,-1.0602,-1.0601,-1.0571,-1.0552,-1.0525,-1.0491,-1.0526,-1.0525,-1.0522,-1.0432,-1.0436,-1.0429,-1.0484,-1.0482,-1.0481,-1.0437,0,-1.0977,-1.0908,-1.0888,-1.0828,-1.0792,-1.0777,-1.0741,-1.0706,-1.0683,-1.0647,-1.0619,-1.0577,-1.0577,-1.0559,-1.0532,-1.0501,-1.0472,-1.0503,-1.0449,-1.0447,-1.0464,-1.0421,-1.0423,-1.0384,-1.0431,-1.043,-1.0429,0,-1.0919,-1.0884,-1.0823,-1.0781,-1.0765,-1.0733,-1.069,-1.0656,-1.0616,-1.06,-1.0568,-1.0552,-1.0507,-1.0517,-1.0453,-1.0475,-1.0451,-1.0432,-1.043,-1.0425,-1.0438,-1.0416,-1.037,-1.0365,-1.0419,-1.042,-1.042,0,-1.0902,-1.0838,-1.0794,-1.0775,-1.0724,-1.0703,-1.068,-1.0641,-1.0615,-1.0576,-1.0559,-1.0513,-1.0488,-1.0452,-1.0424,-1.0433,-1.0363,-1.037,-1.0348,-1.0349,-1.0334,-1.0336,-1.0286,-1.0317,-1.0317,-1.0317,-1.0317,0,-1.0858,-1.0821,-1.0786,-1.0759,-1.0716,-1.0692,-1.065,-1.0625,-1.0591,-1.0557,-1.0539,-1.0507,-1.0471,-1.0433,-1.0409,-1.0361,-1.0349,-1.0334,-1.0329,-1.0337,-1.0339,-1.0322,-1.0324,-1.0315,-1.0315,-1.0316,-1.0316,0,-1.0832,-1.0807,-1.0758,-1.0715,-1.0703,-1.0674,-1.0636,-1.0608,-1.0584,-1.0542,-1.053,-1.0492,-1.0447,-1.0415,-1.0355,-1.0339,-1.0287,-1.0281,-1.0303,-1.03,-1.0281,-1.0283,-1.0219,-1.0209,-1.0245,-1.0245,-1.0244,0,-1.0806,-1.0778,-1.0734,-1.0712,-1.0691,-1.0654,-1.0629,-1.0603,-1.0577,-1.053,-1.0507,-1.0461,-1.0424,-1.0352,-1.0317,-1.0272,-1.0265,-1.0245,-1.0258,-1.0267,-1.0266,-1.0269,-1.0266,-1.0244,-1.0243,-1.0243,-1.0243,0,-1.0764,-1.0754,-1.072,-1.0682,-1.0654,-1.0621,-1.0588,-1.057,-1.0538,-1.0509,-1.0465,-1.0436,-1.0378,-1.0332,-1.0284,-1.0257,-1.0244,-1.024,-1.0232,-1.0241,-1.0255,-1.0249,-1.0299,-1.0241,-1.0241,-1.0242,-1.0242,-1.0242,-1.0739,-1.0714,-1.068,-1.0643,-1.0616,-1.0587,-1.0559,-1.0533,-1.0498,-1.0451,-1.0436,-1.0391,-1.035,-1.0285,-1.0257,-1.0219,-1.022,-1.0209,-1.0206,-1.0204,-1.0206,-1.0261,-1.021,-1.021,-1.021,-1.021,-1.021,0,-1.0697,-1.0676,-1.0642,-1.0599,-1.0569,-1.0563,-1.0527,-1.0502,-1.0464,-1.0429,-1.0393,-1.0343,-1.0299,-1.0262,-1.0216,-1.0193,-1.0185,-1.0181,-1.0183,-1.0177,-1.0207,-1.0219,-1.0188,-1.0188,-1.0188,-1.0188,-1.0188,-1.0188,-1.0673,-1.0632,-1.0617,-1.0562,-1.0539,-1.0497,-1.0477,-1.0449,-1.0422,-1.0368,-1.0333,-1.031,-1.0273,-1.0225,-1.0184,-1.0174,-1.0158,-1.0156,-1.0144,-1.0173,-1.0175,-1.0178,-1.0189,-1.0152,-1.0152,-1.0118,-1.0118,-1.0117]}]]